Terug naar catalogus

STARLINK-6295

ActiefCommunicatieVLEO
NORAD 56554·PAYLOAD·🇺🇸 United States

Gelanceerd May 14, 2023 vanaf Cape Canaveral Space Force Station

Loading…

Volgende Passages (komende 24 uur)

TLE

VersSource: CelesTrak SupGP

Epoch: Sep 15, 2026, 03:11 UTC

1 56554C 23065BD  26258.13312500 -.00023372  00000+0 -84680-3 0  2584
2 56554  43.0006 233.9328 0001468 264.3008  52.7014 15.27579501    14

Volg STARLINK-6295 in realtime met AllMySat

Download on the App Store